Muscle Shoals, AL

10:41 AM CDT on July 23, 2016 (GMT -0500)
Northwest Alabama Regional

Weather History for KMSL - January, 2014

Change the Weather History Date:

Thursday, January 2, 2014

  Actual Average Record
Temperature  
Mean Temperature 38 °F 41 °F  
Max Temperature 51 °F 50 °F 76 °F (2006)
Min Temperature 24 °F 32 °F 2 °F (1928)
Degree Days  
Heating Degree Days 27 24  
Month to date heating degree days 52 48  
Since 1 July heating degree days 1311 1284  
Cooling Degree Days 0 0  
Month to date cooling degree days 0 0  
Year to date cooling degree days 0 0  
Moisture  
Dew Point 32 °F    
Average Humidity 72    
Maximum Humidity 93    
Minimum Humidity 50    
Precipitation  
Precipitation 0.16 in 0.15 in 3.09 in (1937)
Month to date precipitation 0.16 0.30  
Year to date precipitation 0.16 0.30  
Snow  
Snow 0.00 in - - ()
Month to date snowfall 0.0  
Since 1 July snowfall T  
Snow Depth 0.00 in    
Sea Level Pressure  
Sea Level Pressure 30.07 in    
Wind  
Wind Speed 12 mph (WNW)    
Max Wind Speed 26 mph    
Max Gust Speed 37 mph    
Visibility 8 miles    
Events Rain    
T = Trace of Precipitation, MM = Missing Value Source: NWS Daily Summary

Daily Weather History Graph

Daily Weather History Graph

Search for Another Location

Airport or City:

Trip Planner

Search our weather history database for the weather conditions in past years. The results will help you decide how hot, cold, wet, or windy it might be!

Date:

Astronomy

Jan. 02, 2014 Rise Set
Actual Time 6:57 AM CST 4:51 PM CST
Civil Twilight 6:30 AM CST 5:19 PM CST
Nautical Twilight 5:58 AM CST 5:50 PM CST
Astronomical Twilight 5:27 AM CST 6:21 PM CST
Moon 7:43 AM CST (1/2) 6:42 PM CST (1/2)
Length of Visible Light 10h 49m
Length of Day
9h 53m
Waxing Crescent, 3% of the Moon is Illuminated
Jan 2
Waxing Crescent
Jan 7
First Quarter
Jan 15
Full
Jan 23
Last Quarter
Jan 30
New

Hourly Weather History & Observations

Time (CST) Temp. Windchill Dew Point Humidity Pressure Visibility Wind Dir Wind Speed Gust Speed Precip Events Conditions
12:53 AM 48.9 °F - 43.0 °F 80% 29.99 in 10.0 mi South 12.7 mph - N/A   Overcast
1:14 AM 48.2 °F - 42.8 °F 82% 30.00 in 10.0 mi SW 8.1 mph - N/A   Overcast
1:53 AM 48.0 °F - 44.1 °F 86% 29.99 in 3.0 mi South 5.8 mph - 0.05 in Rain Rain
2:20 AM 48.2 °F - 44.6 °F 87% 29.98 in 3.0 mi SW 4.6 mph - 0.05 in Rain Light Rain
2:53 AM 48.0 °F - 45.0 °F 89% 29.97 in 3.0 mi South 5.8 mph - 0.06 in Rain Rain
3:26 AM 48.2 °F - 44.6 °F 87% 29.96 in 7.0 mi South 5.8 mph - 0.01 in   Overcast
3:53 AM 48.0 °F - 45.0 °F 89% 29.95 in 9.0 mi South 4.6 mph - 0.01 in   Overcast
4:01 AM 48.2 °F - 44.6 °F 87% 29.94 in 9.0 mi South 5.8 mph - N/A   Overcast
4:53 AM 48.0 °F - 45.0 °F 89% 29.90 in 10.0 mi South 4.6 mph - N/A   Overcast
5:53 AM 48.9 °F - 45.0 °F 86% 29.89 in 10.0 mi South 8.1 mph - N/A   Overcast
6:53 AM 48.9 °F - 46.0 °F 90% 29.88 in 4.0 mi WSW 4.6 mph - 0.01 in   Overcast
7:42 AM 48.2 °F - 46.4 °F 93% 29.88 in 1.8 mi SW 4.6 mph - 0.02 in   Overcast
7:53 AM 50.0 °F - 46.9 °F 89% 29.89 in 2.0 mi WSW 5.8 mph - 0.02 in   Overcast
8:04 AM 50.0 °F - 46.4 °F 87% 29.89 in 1.5 mi West 8.1 mph - 0.00 in Rain Light Rain
8:09 AM 50.0 °F - 46.4 °F 87% 29.89 in 3.0 mi West 9.2 mph - 0.00 in Rain Light Rain
8:26 AM 50.0 °F - 46.4 °F 87% 29.91 in 10.0 mi WNW 16.1 mph - 0.00 in   Overcast
8:53 AM 46.9 °F - 41.0 °F 80% 29.95 in 10.0 mi NW 15.0 mph 28.8 mph 0.00 in   Overcast
9:02 AM 46.4 °F 40.1 °F 39.2 °F 76% 29.96 in 10.0 mi NW 15.0 mph 23.0 mph N/A   Overcast
9:05 AM 46.4 °F 40.4 °F 39.2 °F 76% 29.96 in 10.0 mi NW 13.8 mph 27.6 mph N/A   Overcast
9:19 AM 46.4 °F 40.4 °F 39.2 °F 76% 29.97 in 10.0 mi NW 13.8 mph 19.6 mph N/A   Overcast
9:53 AM 43.0 °F 35.7 °F 37.0 °F 80% 30.00 in 10.0 mi NW 15.0 mph 25.3 mph N/A   Overcast
10:53 AM 37.9 °F 28.9 °F 32.0 °F 79% 30.05 in 10.0 mi NW 16.1 mph 28.8 mph 0.01 in   Overcast
11:53 AM 34.0 °F 23.0 °F 28.0 °F 79% 30.07 in 8.0 mi NW 18.4 mph 27.6 mph N/A   Overcast
12:53 PM 32.0 °F 20.1 °F 26.1 °F 79% 30.09 in 8.0 mi NW 19.6 mph 27.6 mph N/A   Overcast
1:14 PM 32.0 °F 22.1 °F 24.8 °F 75% 30.10 in 9.0 mi NW 13.8 mph 26.5 mph N/A   Overcast
1:53 PM 32.0 °F 22.5 °F 24.1 °F 73% 30.12 in 10.0 mi NW 12.7 mph 25.3 mph N/A   Overcast
2:53 PM 33.1 °F 22.6 °F 23.0 °F 66% 30.15 in 10.0 mi NW 16.1 mph 21.9 mph N/A   Mostly Cloudy
3:33 PM 32.0 °F 21.6 °F 19.4 °F 60% 30.16 in 10.0 mi NW 15.0 mph 25.3 mph N/A   Scattered Clouds
3:53 PM 30.9 °F 20.7 °F 19.0 °F 61% 30.19 in 10.0 mi NNW 13.8 mph 27.6 mph N/A   Clear
4:53 PM 30.0 °F 20.0 °F 18.0 °F 61% 30.22 in 10.0 mi NW 12.7 mph 28.8 mph N/A   Clear
5:33 PM 28.4 °F 16.6 °F 15.8 °F 59% 30.23 in 10.0 mi NW 16.1 mph 26.5 mph N/A   Mostly Cloudy
5:53 PM 28.0 °F 16.1 °F 15.1 °F 58% 30.26 in 10.0 mi NNW 16.1 mph 29.9 mph N/A   Mostly Cloudy
6:15 PM 28.4 °F 17.0 °F 14.0 °F 55% 30.26 in 10.0 mi NNW 15.0 mph 29.9 mph N/A   Mostly Cloudy
6:53 PM 27.0 °F 15.2 °F 14.0 °F 58% 30.28 in 10.0 mi NNW 15.0 mph 31.1 mph N/A   Overcast
7:53 PM 27.0 °F 17.3 °F 12.9 °F 56% 30.32 in 10.0 mi NNW 10.4 mph 26.5 mph N/A   Overcast
8:53 PM 26.1 °F 15.0 °F 10.9 °F 53% 30.34 in 10.0 mi NNW 12.7 mph 19.6 mph N/A   Mostly Cloudy
9:53 PM 25.0 °F 14.2 °F 10.9 °F 55% 30.37 in 10.0 mi NNW 11.5 mph 19.6 mph N/A   Mostly Cloudy
10:53 PM 25.0 °F 14.8 °F 12.0 °F 58% 30.39 in 10.0 mi NNW 10.4 mph - N/A   Overcast
11:53 PM 24.1 °F 14.4 °F 12.0 °F 60% 30.40 in 10.0 mi NW 9.2 mph - N/A   Overcast